EW7112 Weather Reports


time (UTC)temp
C
wind
direction
speed
KPH
gust
KPH
rain 1hr
cm
rain 24hr
cm
rain mn
cm
humidity
%
barometer
mb
20260831043019 32 105 0.0 3.2 0.00 0.00 0.00 45 991.6
20260831041519 32 103 0.0 3.2 0.00 0.00 0.00 45 991.4
20260831040018 32 181 0.0 3.2 0.00 0.00 0.00 44 991.4
20260831034527 33 139 0.0 3.2 0.00 0.00 0.00 43 991.5
20260831033032 33 139 0.0 3.2 0.00 0.00 0.00 43 991.3
20260831031518 33 99 1.6 6.4 0.00 0.00 0.00 42 991.2
20260831030016 33 94 1.6 4.8 0.00 0.00 0.00 42 991.2
20260831024516 33 136 1.6 8.0 0.00 0.00 0.00 41 991.0
20260831023015 33 114 1.6 4.8 0.00 0.00 0.00 41 990.8
20260831021529 34 101 1.6 4.8 0.00 0.00 0.00 40 990.6
20260831020015 34 137 1.6 6.4 0.00 0.00 0.00 39 990.2
20260831014514 35 139 3.2 8.0 0.00 0.00 0.00 38 990.0
20260831013015 35 96 3.2 6.4 0.00 0.00 0.00 37 989.9
20260831011531 35 89 0.0 6.4 0.00 0.00 0.00 35 989.8
20260831010011 35 109 1.6 4.8 0.00 0.00 0.00 34 989.8
20260831004511 36 83 0.0 11.3 0.00 0.00 0.00 33 989.7
20260831003015 36 95 1.6 11.3 0.00 0.00 0.00 32 989.6
20260831001515 36 214 3.2 8.0 0.00 0.00 0.00 32 989.7
20260831000008 36 220 4.8 12.9 0.00 0.00 0.00 32 989.8
20260830234518 37 110 4.8 9.7 0.00 0.00 0.00 31 989.8
20260830233009 37 134 8.0 14.5 0.00 0.00 0.00 31 989.8
20260830231509 37 209 4.8 12.9 0.00 0.00 0.00 30 989.8
20260830230002 37 139 4.8 9.7 0.00 0.00 0.00 30 989.9
20260830224502 37 191 6.4 17.7 0.00 0.00 0.00 29 990.1
20260830223001 37 108 4.8 14.5 0.00 0.00 0.00 28 990.1
20260830221600 38 150 6.4 17.7 0.00 0.00 0.00 29 990.1
20260830214600 38 211 4.8 12.9 0.00 0.00 0.00 30 990.1
20260830213054 38 149 6.4 17.7 0.00 0.00 0.00 30 990.2
20260830211551 38 110 4.8 17.7 0.00 0.00 0.00 29 990.4
20260830210048 37 248 4.8 12.9 0.00 0.00 0.00 31 990.6
20260830204545 37 128 3.2 12.9 0.00 0.00 0.00 32 990.8
20260830203043 37 180 4.8 14.5 0.00 0.00 0.00 32 991.0
20260830201543 37 121 1.6 16.1 0.00 0.00 0.00 32 991.2
20260830200036 38 257 3.2 12.9 0.00 0.00 0.00 32 991.4
20260830194534 37 154 4.8 11.3 0.00 0.00 0.00 33 991.5
20260830193031 37 94 6.4 19.3 0.00 0.00 0.00 35 991.8
20260830191529 37 71 4.8 19.3 0.00 0.00 0.00 34 991.9
20260830190025 37 198 6.4 17.7 0.00 0.00 0.00 34 992.1
20260830184523 37 269 4.8 14.5 0.00 0.00 0.00 35 992.3
20260830183021 36 153 4.8 16.1 0.00 0.00 0.00 36 992.6
20260830181519 36 262 3.2 14.5 0.00 0.00 0.00 38 992.7
20260830180016 36 173 8.0 19.3 0.00 0.00 0.00 39 993.0
20260830174525 36 195 6.4 16.1 0.00 0.00 0.00 39 993.3
20260830173011 35 214 4.8 16.1 0.00 0.00 0.00 41 993.4
20260830171509 35 271 6.4 14.5 0.00 0.00 0.00 41 993.6
20260830170006 34 255 3.2 12.9 0.00 0.00 0.00 45 993.9
20260830164506 34 224 4.8 19.3 0.00 0.00 0.00 46 994.0
20260830163103 33 162 6.4 17.7 0.00 0.00 0.00 48 994.1
20260830161609 33 219 3.2 16.1 0.00 0.00 0.00 51 994.3
20260830160053 32 95 3.2 14.5 0.00 0.00 0.00 53 994.2
20260830154549 32 192 4.8 11.3 0.00 0.00 0.00 55 994.3
20260830153046 32 147 3.2 9.7 0.00 0.00 0.00 55 994.3
20260830151547 31 242 4.8 11.3 0.00 0.00 0.00 56 994.3
20260830150040 31 244 3.2 11.3 0.00 0.00 0.00 58 994.2
20260830144538 30 207 6.4 11.3 0.00 0.00 0.00 59 994.2
20260830143035 30 240 3.2 12.9 0.00 0.00 0.00 61 994.2
20260830141533 29 165 4.8 9.7 0.00 0.00 0.00 63 994.3
20260830140032 28 169 3.2 6.4 0.00 0.00 0.00 65 994.3
20260830134529 28 225 0.0 8.0 0.00 0.00 0.00 67 994.2
20260830133026 28 220 3.2 12.9 0.00 0.00 0.00 68 994.2
20260830131524 27 205 1.6 6.4 0.00 0.00 0.00 69 994.1
20260830130021 27 155 0.0 1.6 0.00 0.00 0.00 70 993.9
20260830124533 27 155 0.0 0.0 0.00 0.00 0.00 69 993.6
20260830123018 27 155 0.0 1.6 0.00 0.00 0.00 69 993.4
20260830121514 27 155 0.0 0.0 0.00 0.00 0.00 68 993.3
20260830120013 27 155 0.0 4.8 0.00 0.00 0.00 67 993.2
20260830114510 27 155 0.0 3.2 0.00 0.00 0.00 66 993.0
20260830113008 27 155 0.0 3.2 0.00 0.00 0.00 66 992.8
20260830111511 27 155 0.0 1.6 0.00 0.00 0.00 64 992.7
20260830110002 27 122 0.0 1.6 0.00 0.00 0.00 64 992.7
20260830104606 28 120 1.6 3.2 0.00 0.00 0.00 62 992.4
20260830103058 28 120 0.0 4.8 0.00 0.00 0.00 61 992.3
20260830101602 28 120 0.0 3.2 0.00 0.00 0.00 60 992.2
20260830100053 28 120 0.0 3.2 0.00 0.00 0.00 59 992.1
20260830094556 28 125 1.6 4.8 0.00 0.00 0.00 58 992.1
20260830093052 29 175 0.0 3.2 0.00 0.00 0.00 58 992.3
20260830091547 29 186 0.0 4.8 0.00 0.00 0.00 56 992.2
20260830090044 29 103 1.6 4.8 0.00 0.00 0.00 56 992.2
20260830084544 29 179 0.0 3.2 0.00 0.00 0.00 55 992.2
20260830083049 29 250 0.0 6.4 0.00 0.00 0.00 55 992.2
20260830081540 30 117 0.0 3.2 0.00 0.00 0.00 54 992.2
20260830080041 30 98 0.0 1.6 0.00 0.00 0.00 53 992.1
20260830074539 30 98 1.6 4.8 0.00 0.00 0.00 53 992.2
20260830073039 30 112 0.0 3.2 0.00 0.00 0.00 53 992.1
20260830071552 30 143 0.0 1.6 0.00 0.00 0.00 52 992.1
20260830070029 30 126 0.0 1.6 0.00 0.00 0.00 50 992.1
20260830064528 31 262 1.6 4.8 0.00 0.00 0.00 49 992.1
20260830063025 31 210 0.0 1.6 0.00 0.00 0.00 48 992.1
20260830061523 31 210 0.0 4.8 0.00 0.00 0.00 47 992.2
20260830060022 31 130 0.0 1.6 0.00 0.00 0.00 45 992.2
20260830054527 32 130 0.0 4.8 0.00 0.00 0.00 44 992.2
20260830053015 32 193 0.0 4.8 0.00 0.00 0.00 44 992.2
20260830051518 32 144 0.0 4.8 0.00 0.00 0.00 43 992.3
20260830050009 32 131 3.2 6.4 0.00 0.00 0.00 42 992.2
20260830044508 32 91 0.0 6.4 0.00 0.00 0.00 42 992.2